Terminal Aerodrome Forecast
Issued by NWS Pueblo, CO

Home | Current Version | Previous Version | Text Only | Print | Product List | Glossary On
Versions: 1 2 3 4 5 6 7 8 9 10 11 12 13 14 15 16 17 18 19 20 21 22 23 24 25 26 27 28 29 30 31 32 33 34 35 36
000
FTUS45 KPUB 272226 AAB
TAFPUB
TAF AMD
KPUB 272226Z 2722/2818 18015G25KT P6SM VCTS SCT080 BKN120CB
      TEMPO 2722/2724 VRB20G33KT 3SM -TSRA SCT040 BKN060CB
     FM280000 27012KT P6SM SCT080 BKN120
     FM280600 VRB06KT P6SM BKN150
     FM281200 VRB06KT P6SM FEW120 SCT200=

USA.gov is the U.S. government's official web portal to all federal, state and local government web resources and services.